GFSMA_850_rhum_000.txt.gz
RH
86 88 99 98 95 90 90 85 80 56 40 35 35 36 34 29 24 22 24 30 38 44 52 70 76 75 74 87 96 98 97 94 89 84 80 78 79 77 75 74 78 78 79
96 100 99 96 88 85 83 59 32 31 32 32 28 23 21 22 23 25 30 40 47 50 49 50 52 54 57 64 70 76 81 85 79 73 69 68 62 55 51 57 69 77 78
97 96 92 89 86 54 29 30 28 25 22 20 18 19 22 24 25 30 38 42 46 49 48 47 44 40 41 43 47 52 55 56 56 54 59 55 52 53 60 56 57 62 69
98 95 92 77 29 30 29 27 24 21 20 20 19 19 19 19 23 31 33 33 35 36 32 29 31 31 27 26 27 31 37 38 39 41 46 46 45 45 52 58 56 57 60
92 86 61 29 32 34 34 28 21 21 22 21 20 18 16 18 22 35 27 17 12 14 8 14 13 8 6 5 5 5 8 9 11 36 58 61 51 72 69 71 72 61 57
75 26 31 35 40 38 30 22 22 24 23 22 21 17 14 14 26 37 22 24 12 13 8 13 11 6 6 5 5 5 6 6 11 70 45 64 83 89 94 93 91 91 89
24 34 40 45 46 41 30 23 23 24 24 24 20 16 12 13 14 11 21 29 11 13 8 7 6 6 5 5 6 7 8 8 23 74 62 85 83 91 92 91 92 90 88
35 42 49 50 49 45 36 28 26 27 26 21 14 14 13 12 13 16 9 10 9 9 9 8 7 6 6 5 6 7 8 7 19 47 86 88 92 92 91 91 90 87 88
41 51 52 52 51 50 44 34 29 28 23 14 11 16 17 19 18 15 11 12 12 11 10 10 9 8 8 7 6 6 7 8 19 71 85 90 88 89 88 89 89 88 85
50 52 52 52 53 53 47 37 30 24 13 10 13 16 18 20 20 23 17 13 14 13 12 11 10 9 8 8 8 8 12 24 65 73 79 84 85 86 87 87 85 85 86
51 52 51 52 53 53 48 37 25 14 9 13 17 18 16 14 16 30 24 17 14 14 14 13 12 12 12 12 16 35 44 63 70 74 80 84 85 84 84 85 82 85 83
51 52 50 52 54 53 45 32 16 9 10 16 19 17 15 18 20 28 37 31 35 25 16 15 15 17 19 25 38 35 48 70 69 78 81 80 83 83 83 84 82 82 85
50 50 50 53 54 50 40 23 11 10 15 19 16 15 17 21 24 29 35 33 39 26 32 34 32 31 33 43 42 52 58 73 77 77 80 82 83 83 82 84 83 86 80
50 49 51 54 53 45 30 16 11 15 20 18 17 20 21 22 26 34 40 45 43 47 44 53 53 60 64 69 75 76 76 76 78 79 80 81 82 88 88 84 82 83 85
48 49 53 54 49 38 24 14 16 22 20 20 23 23 23 26 29 33 39 44 54 75 66 70 74 66 75 80 79 78 82 81 80 79 79 83 91 87 82 82 80 79 79
49 52 55 53 43 28 18 19 24 22 23 26 26 26 26 28 31 38 47 54 58 63 92 63 70 76 80 73 66 83 85 83 81 84 91 87 77 75 77 79 79 80 80
52 56 56 48 35 23 22 26 26 26 30 31 30 28 27 33 38 52 64 71 77 76 84 68 72 73 66 60 72 73 81 95 93 88 88 77 76 80 81 81 86 91 94
57 59 53 41 28 24 27 29 31 34 34 32 29 28 29 40 48 61 78 83 88 81 90 88 82 68 59 75 75 76 77 77 76 75 83 83 83 82 85 92 97 94 97
60 58 47 32 25 27 30 34 36 36 33 29 27 30 37 42 51 66 78 87 85 94 96 89 79 72 81 89 91 83 68 79 84 89 87 88 92 92 93 92 88 93 95
60 50 35 27 27 30 34 37 37 33 27 24 28 28 30 39 49 80 88 89 88 80 75 83 85 82 99 94 84 82 84 90 95 99 94 99 96 94 94 94 94 92 92
51 39 28 26 29 32 34 37 32 27 25 32 29 32 44 52 59 86 90 84 88 92 96 97 96 93 92 84 82 83 99 100 100 98 94 92 92 96 92 93 87 95 99
40 30 26 25 27 30 37 34 25 32 35 37 41 56 62 66 67 80 76 89 100 98 94 90 97 94 90 84 83 100 100 100 96 96 96 92 98 94 86 77 82 100 100
34 27 23 24 26 36 36 25 19 32 45 53 64 70 75 77 67 73 77 87 96 91 88 90 82 85 97 94 99 97 99 100 100 99 100 94 84 84 76 71 81 100 100
31 22 18 22 33 38 26 19 19 31 60 74 76 79 90 74 87 96 97 97 83 75 70 74 94 94 98 98 98 100 99 97 94 90 100 97 86 92 86 87 83 99 100
21 14 19 33 38 27 19 17 22 63 82 84 82 88 81 95 91 98 96 98 94 74 71 91 99 93 82 83 97 97 93 98 99 93 86 100 94 100 91 81 80 92 98
12 18 33 38 25 19 17 23 60 94 94 86 97 88 87 98 96 100 95 97 91 75 97 95 77 71 68 70 82 94 99 98 100 98 81 98 95 100 96 90 83 80 81

GFSMA_850_rhum_003.txt.gz
RH
85 92 98 97 90 89 87 84 72 45 29 29 29 27 24 21 20 19 21 25 33 41 47 62 64 66 88 96 95 99 99 96 95 91 86 81 76 74 77 74 69 68 71
97 98 96 93 92 87 78 44 27 27 26 24 22 20 18 19 21 24 28 34 42 48 49 49 50 50 55 62 76 79 79 79 82 79 75 70 65 63 60 58 53 48 49
94 94 95 92 88 59 28 28 28 26 24 22 21 20 20 20 21 26 31 38 42 45 46 47 48 46 43 42 43 49 57 57 59 61 62 60 57 54 52 50 49 48 49
94 93 89 88 42 30 31 30 26 19 17 16 17 18 17 17 19 27 28 21 19 22 20 17 19 21 19 16 15 16 20 28 33 35 38 40 39 38 40 44 46 46 50
90 90 84 36 32 34 33 25 17 16 18 18 18 17 14 15 18 29 34 27 19 12 13 10 11 13 9 6 5 5 5 7 8 10 28 62 39 40 55 69 75 70 65
85 74 28 33 40 42 36 29 23 22 21 19 16 12 12 11 16 32 38 18 18 22 13 11 9 7 7 6 6 5 5 6 8 16 81 80 71 88 92 94 94 93 92
74 22 35 46 49 48 47 42 34 26 20 16 11 9 9 11 14 16 21 15 8 12 8 9 10 10 9 8 8 7 6 6 6 11 85 86 89 92 91 92 91 91 90
25 35 48 51 51 52 54 51 45 31 20 14 10 11 11 11 14 11 10 10 10 12 12 12 12 11 10 10 9 8 7 6 6 22 74 83 88 88 89 88 88 89 90
34 44 50 51 52 54 56 55 49 33 17 10 10 13 17 22 15 11 14 14 16 15 15 15 14 13 12 12 11 10 9 8 9 47 77 84 86 86 84 84 84 85 85
41 50 50 51 52 55 56 55 46 28 12 10 12 15 16 15 21 31 22 20 19 19 18 17 16 14 14 14 14 13 13 15 62 74 81 84 83 83 83 82 82 81 79
46 51 51 50 52 55 56 52 40 20 10 11 16 17 15 15 18 25 31 24 24 23 21 20 18 15 16 17 18 22 29 61 66 77 81 81 83 85 83 81 81 81 80
49 51 50 50 53 56 56 50 34 17 12 16 19 17 18 21 23 28 48 46 48 40 25 24 18 19 20 27 32 32 49 72 76 78 82 83 82 84 89 95 97 96 98
47 50 50 51 54 56 54 45 29 16 17 21 19 20 22 23 23 26 31 41 55 48 51 52 50 43 46 48 60 73 78 80 81 80 81 80 80 84 88 94 93 98 99
46 49 49 52 55 56 51 39 25 20 22 22 22 25 27 27 28 30 36 45 50 48 46 49 61 67 67 78 84 87 77 79 77 76 76 80 78 76 78 97 96 95 92
45 48 49 53 55 53 45 33 25 24 24 25 29 32 32 30 29 31 35 36 56 64 59 56 69 71 84 86 83 78 76 77 77 76 69 70 76 92 96 93 79 81 80
46 48 51 54 54 49 39 30 26 26 29 34 36 34 32 28 28 30 36 45 62 82 86 63 68 86 86 84 82 76 74 79 78 79 81 83 88 84 79 80 80 82 86
47 49 54 55 50 42 34 28 28 32 36 37 35 31 25 22 20 24 38 56 72 86 92 73 86 80 86 82 79 86 90 88 88 86 82 82 86 87 92 93 91 93 92
49 53 56 52 44 37 30 28 33 36 36 34 30 23 15 13 16 27 40 51 69 79 87 88 83 84 80 90 95 99 93 86 80 83 86 87 86 87 88 93 96 95 98
53 56 54 46 40 34 29 32 33 33 34 29 21 14 13 21 31 39 46 64 85 92 95 97 86 76 96 100 100 90 81 72 78 86 89 91 94 94 94 94 95 94 94
57 55 49 44 38 31 29 29 31 34 30 21 14 18 27 41 48 59 88 96 95 90 91 94 99 97 97 88 83 77 80 84 90 92 92 96 94 93 94 94 97 97 97
56 52 46 42 32 25 22 26 34 30 21 13 17 29 45 55 67 91 93 94 94 95 96 98 97 94 90 82 83 89 97 97 96 95 90 92 88 92 88 96 98 100 100
53 48 46 35 23 16 20 34 31 19 14 21 31 40 59 74 86 91 93 99 100 98 94 96 100 89 80 89 93 100 100 100 99 91 94 94 86 93 89 90 99 100 100
54 50 37 22 11 18 34 31 19 14 18 28 42 64 84 91 77 84 82 95 98 93 84 86 87 90 97 98 99 95 99 99 100 91 99 100 83 97 90 84 95 100 100
53 38 21 9 20 35 29 18 14 15 21 46 69 78 91 82 91 96 99 99 84 78 83 82 100 99 100 98 100 100 98 95 95 83 100 98 83 97 90 82 80 99 100
41 19 10 26 35 26 16 14 16 23 51 70 72 87 89 99 100 94 96 94 94 86 73 91 98 91 74 76 85 100 99 100 99 91 88 99 97 100 94 75 76 94 100
17 16 32 33 21 14 14 16 26 70 89 89 100 100 90 98 96 98 96 95 98 76 98 98 77 70 68 67 73 91 98 99 100 98 85 98 98 100 96 82 82 77 92

GFSMA_850_rhum_006.txt.gz
RH
89 78 85 83 90 86 86 82 64 30 27 26 24 21 19 19 21 22 44 28 34 42 48 54 65 63 64 76 87 92 88 85 90 92 90 87 82 76 73 74 77 77 72
87 93 91 90 89 90 79 38 28 28 25 22 20 17 18 19 20 23 32 32 38 44 47 47 47 46 46 50 59 62 68 69 70 74 76 74 70 68 67 65 63 59 55
92 88 91 90 89 78 31 30 28 24 17 14 16 17 18 18 19 22 30 34 38 39 39 38 37 36 38 38 37 38 39 43 48 51 56 61 62 62 60 58 56 54 52
89 89 87 87 84 30 31 30 25 18 15 15 16 18 17 16 20 24 26 22 18 15 14 12 10 9 11 12 9 6 5 6 7 8 9 15 38 60 24 22 27 32 35
90 89 89 84 31 34 38 34 30 24 18 15 15 14 13 16 26 28 33 33 32 21 21 15 10 8 8 7 7 6 6 5 4 5 5 7 56 29 30 45 71 66 75
88 89 82 30 38 45 45 44 40 34 23 14 10 11 12 14 20 33 42 20 15 10 15 13 10 12 11 11 10 9 9 8 7 7 9 9 92 91 83 87 90 91 92
86 77 28 38 48 48 48 49 46 39 26 13 11 19 21 11 17 34 17 12 13 10 14 14 14 13 12 12 11 10 10 10 10 10 14 26 82 89 90 89 87 88 88
75 33 37 48 49 49 51 53 51 42 27 13 12 23 25 24 26 20 22 14 15 16 15 16 16 15 14 13 12 11 11 11 10 11 23 73 81 85 88 86 86 86 86
46 34 47 49 49 51 54 56 54 44 24 15 13 18 24 23 24 24 22 17 21 19 19 19 18 16 15 13 13 12 12 12 12 30 80 84 89 88 86 85 84 82 82
35 43 49 48 50 52 55 57 55 43 25 15 21 17 16 18 27 28 30 30 31 35 36 32 24 17 17 15 11 10 10 13 17 42 74 81 87 87 86 84 83 87 86
42 48 49 49 50 53 56 57 54 41 25 18 18 19 20 28 37 42 34 34 38 42 42 44 37 38 40 44 49 54 45 48 80 85 85 84 83 82 82 81 81 88 98
44 50 49 49 51 54 56 57 52 41 26 21 21 20 22 31 37 41 41 42 44 43 43 42 42 42 44 51 56 56 70 84 90 89 87 87 85 82 82 86 88 98 98
45 49 49 49 52 54 56 56 50 38 26 23 22 24 27 30 34 42 50 49 47 44 38 39 40 41 52 58 57 70 76 86 80 82 82 84 83 83 86 85 84 83 82
44 48 48 49 52 54 55 53 47 36 27 24 26 30 34 35 36 38 52 56 50 39 35 32 39 45 54 61 71 78 75 75 76 78 79 79 78 76 78 79 81 87 93
44 45 47 49 52 54 54 51 43 32 27 28 33 36 36 35 33 38 51 60 59 50 44 42 45 49 58 67 68 73 72 70 76 80 83 84 87 86 83 82 85 88 90
41 44 46 50 53 53 52 47 39 31 29 34 35 35 34 32 31 35 55 64 65 63 60 51 53 58 65 68 69 72 72 82 82 83 83 84 85 88 87 84 85 85 87
40 44 47 51 52 52 49 43 36 31 32 32 33 33 29 23 26 50 59 62 66 67 67 60 63 67 72 72 71 78 81 87 81 74 76 78 82 87 91 91 92 90 92
42 45 49 52 52 50 46 41 33 29 27 29 32 29 23 27 27 50 62 65 67 71 72 76 75 75 73 78 87 86 82 71 67 64 73 85 90 91 91 92 94 94 95
44 48 52 53 52 49 44 35 27 23 25 32 31 24 21 25 45 59 64 72 78 77 78 82 78 75 85 93 88 78 71 67 70 76 78 84 88 93 95 94 92 91 93
48 52 53 52 51 46 37 25 19 23 33 32 25 28 34 42 69 75 81 80 76 81 79 82 88 96 95 82 74 67 68 76 81 84 83 91 89 90 90 87 92 96 96
52 53 54 54 49 39 24 15 26 35 34 35 38 55 63 71 57 95 94 91 88 89 89 92 98 93 84 72 66 74 86 89 86 90 84 84 78 83 87 90 92 94 94
54 54 56 52 40 22 11 22 33 26 39 58 61 60 73 88 89 94 92 93 95 95 97 100 95 86 71 70 80 91 100 99 94 85 87 85 89 89 89 88 90 95 97
55 58 54 41 20 12 27 32 22 15 49 51 60 78 83 82 92 90 95 96 96 96 97 92 84 76 83 87 90 94 94 97 96 88 97 89 88 88 87 82 92 99 100
61 52 38 16 18 32 29 18 12 18 46 73 83 86 85 87 89 95 96 96 98 84 79 83 87 90 94 93 98 98 98 96 95 95 93 94 86 91 87 75 69 66 96
50 32 16 27 32 23 14 12 14 28 74 80 82 82 89 95 94 94 98 90 84 78 82 93 100 100 99 100 100 100 95 98 98 94 96 95 89 95 86 69 73 75 89
26 22 34 29 18 11 12 14 17 68 80 78 78 82 86 94 91 98 96 88 86 88 95 95 93 93 94 96 100 100 96 97 100 99 89 97 97 100 96 84 76 60 68

GFSMA_850_rhum_009.txt.gz
RH
84 93 90 82 78 79 80 80 61 28 28 23 21 20 21 21 29 35 45 31 31 39 44 47 56 57 58 64 74 72 78 77 75 76 80 83 81 83 82 76 72 72 73
94 80 79 83 83 84 83 52 29 26 23 16 16 22 23 27 23 31 47 34 33 37 41 43 44 45 45 45 45 46 47 49 52 55 60 64 65 65 66 66 65 64 63
94 84 87 86 85 85 56 29 28 25 19 14 19 24 22 21 28 32 40 40 38 31 33 28 24 21 18 16 16 16 15 14 14 18 22 25 28 36 42 44 47 50 49
82 86 85 83 84 72 29 33 34 30 24 16 14 17 24 24 32 33 34 33 29 23 21 15 12 12 9 8 7 6 6 6 6 5 4 4 4 6 31 10 8 8 9
83 86 83 85 83 30 38 40 38 35 27 17 11 13 15 24 36 32 36 35 35 24 11 14 16 15 13 11 11 10 10 10 9 8 8 7 6 6 90 84 54 36 61
92 85 88 84 33 40 43 44 44 39 29 17 9 18 19 24 36 41 46 28 30 17 14 15 14 15 14 13 12 11 10 10 9 10 10 11 14 14 83 92 93 92 92
91 88 84 43 39 46 46 48 47 42 31 18 13 17 30 19 37 50 24 28 29 25 23 21 18 17 15 14 12 11 10 10 10 10 12 20 32 52 85 90 89 88 88
93 84 62 32 47 47 50 51 51 45 34 21 14 26 29 27 30 28 24 28 26 25 26 22 20 19 17 14 13 10 9 7 7 9 23 73 92 93 92 90 88 86 86
90 71 31 43 47 49 52 54 54 50 36 24 17 16 27 27 23 25 28 27 32 29 28 29 26 24 19 18 17 16 17 9 7 8 22 78 87 90 89 87 86 85 86
70 49 39 47 48 50 52 55 56 53 40 26 26 19 18 20 33 31 29 32 32 33 37 33 26 19 18 23 22 20 28 13 8 12 74 91 93 91 89 86 84 83 82
66 43 45 48 49 51 53 56 57 54 44 29 22 20 22 32 38 41 40 37 37 39 41 41 42 39 39 41 41 51 59 64 76 91 90 90 90 89 87 84 82 83 86
50 44 47 48 49 51 53 56 57 56 46 32 25 22 23 29 34 44 44 42 44 42 42 37 37 36 38 41 46 54 52 76 87 92 90 91 89 88 86 84 90 88 97
49 45 48 48 49 51 54 56 57 56 46 32 26 25 27 32 37 42 49 49 50 42 42 36 32 33 34 43 52 57 66 78 79 84 84 86 86 86 84 83 81 80 84
48 45 48 48 49 51 54 56 57 55 44 33 28 29 32 34 38 42 48 54 56 52 45 38 34 37 42 48 54 65 68 70 75 78 80 83 84 85 84 87 86 86 86
48 44 47 47 48 51 54 56 56 51 41 33 31 34 34 35 37 39 43 51 60 61 56 47 41 45 46 53 58 66 69 69 73 79 80 83 83 86 83 82 82 87 90
42 44 45 46 48 52 55 55 54 49 38 34 34 30 29 33 36 38 46 55 57 60 63 58 57 57 57 63 68 69 71 80 81 78 80 82 83 80 81 84 86 89 95
42 42 43 46 50 53 55 54 51 43 36 32 29 28 29 33 34 39 43 51 57 61 64 65 68 70 71 72 69 77 82 68 73 74 73 73 77 83 86 92 90 93 93
40 40 43 47 51 54 54 52 46 38 31 25 24 33 38 48 40 41 51 57 59 62 71 74 75 77 77 72 85 91 88 74 75 65 72 79 83 84 86 87 92 94 90
38 41 45 50 54 56 55 50 40 28 23 24 34 46 44 47 47 54 62 68 73 77 77 78 81 77 82 90 92 82 73 69 66 72 77 82 86 88 92 89 88 88 89
40 44 49 54 56 56 55 43 28 16 22 40 49 56 53 55 57 70 71 87 86 85 88 86 78 80 98 94 78 72 70 75 82 85 77 87 88 89 87 85 91 94 94
44 49 54 56 58 58 46 28 13 23 35 48 49 52 58 64 69 88 94 92 92 87 84 81 98 98 91 80 76 75 84 90 80 98 68 90 82 76 73 88 91 94 95
50 54 56 61 57 44 30 13 28 30 22 28 48 50 61 70 78 84 89 90 90 93 96 99 95 92 92 77 83 93 92 98 99 80 91 85 86 87 83 85 89 93 96
54 58 63 56 42 20 19 31 24 14 13 36 49 68 78 76 82 87 88 88 88 99 99 90 93 85 85 81 85 93 96 99 96 76 87 94 88 89 79 79 91 95 93
61 65 54 39 20 30 30 19 12 12 22 54 70 76 78 79 84 90 85 96 88 81 82 81 87 89 89 94 98 98 95 89 85 84 100 100 83 83 89 77 60 61 68
63 52 30 26 32 25 16 12 14 16 46 65 71 73 76 82 87 89 96 90 91 86 81 87 94 99 97 95 97 94 86 99 93 96 90 99 92 89 82 65 64 72 79
45 26 34 31 21 13 16 16 17 26 59 77 76 77 78 84 90 91 96 95 91 86 87 89 90 89 90 89 94 94 97 97 98 99 83 97 96 99 96 85 77 64 58

GFSMA_850_rhum_012.txt.gz
RH
57 86 96 96 79 72 76 76 68 30 24 22 16 14 14 16 20 32 32 35 28 32 36 40 44 46 48 50 51 50 50 52 54 54 58 62 66 68 70 74 78 76 72
84 95 90 76 75 78 79 73 32 26 26 20 14 14 16 18 21 28 38 32 29 32 35 37 38 37 35 33 30 25 22 21 23 25 28 33 40 47 51 54 57 61 62
89 92 78 85 84 81 78 34 30 31 26 20 14 13 19 18 21 27 36 35 27 26 25 19 14 12 10 9 8 8 7 6 6 6 6 5 4 4 5 7 10 14 22
92 90 85 86 85 82 47 31 35 32 29 21 14 10 13 16 24 30 29 32 30 28 27 19 13 16 16 16 14 12 11 10 10 10 9 9 7 7 6 11 34 12 9
90 77 84 83 82 76 32 38 37 37 31 20 12 9 12 16 31 32 33 33 27 24 16 14 11 12 13 13 13 12 12 11 10 10 10 10 10 10 12 17 93 93 85
81 86 83 83 85 34 42 41 43 40 32 20 11 12 16 16 30 28 41 37 26 23 19 16 16 15 16 15 14 13 11 10 11 11 12 31 52 42 25 30 92 94 92
83 85 83 82 68 38 43 46 45 43 35 21 12 15 26 25 23 43 46 25 24 22 22 19 19 19 19 16 15 12 11 10 10 10 15 21 65 87 92 94 94 91 90
83 86 83 77 32 43 46 49 49 47 41 26 14 16 24 28 31 25 23 27 24 26 27 24 22 21 19 18 15 13 11 11 9 8 19 55 84 92 94 94 91 89 87
91 91 82 53 35 44 47 50 51 51 47 35 20 14 18 27 25 22 27 28 28 31 29 26 25 25 24 20 17 17 17 21 13 30 66 80 87 94 94 92 91 88 87
98 91 74 37 42 45 48 51 53 54 51 41 29 20 19 19 20 21 25 27 26 29 29 28 26 24 22 20 22 19 23 32 31 38 81 92 94 94 92 90 89 87 86
96 83 55 41 44 46 48 51 53 55 55 47 32 24 22 22 26 36 36 30 29 26 28 29 29 31 28 30 30 27 29 23 32 68 87 91 90 89 88 88 92 92 96
88 65 48 45 47 47 49 51 54 57 57 50 37 28 25 25 27 34 38 32 33 28 31 28 26 34 34 36 37 38 44 57 76 84 85 86 86 86 86 86 85 86 91
79 68 48 49 47 48 49 52 55 57 58 52 40 31 28 29 32 35 39 38 40 32 29 26 29 27 32 34 38 43 46 62 74 77 82 84 85 86 84 85 85 91 90
83 62 58 48 47 48 49 52 55 58 58 53 41 33 31 31 32 33 38 47 47 44 36 37 28 29 42 44 46 45 44 57 72 79 82 84 85 85 86 83 84 89 84
76 73 49 47 47 48 50 53 56 58 58 51 39 34 30 27 29 34 40 44 51 62 60 48 51 42 34 33 42 50 60 69 74 86 86 83 83 86 82 82 82 80 83
75 50 47 47 46 48 51 54 57 58 57 46 36 31 26 23 28 35 36 36 39 51 60 52 53 55 66 72 70 74 72 76 80 88 83 84 83 81 82 84 86 93 96
53 48 46 46 45 48 52 55 58 58 54 41 32 24 20 29 36 36 33 30 39 51 60 57 66 77 79 79 69 68 80 86 74 77 80 82 79 85 87 90 91 89 95
50 47 44 43 45 49 54 56 58 56 45 33 22 20 29 39 38 34 35 47 57 62 73 81 84 82 83 67 71 87 85 72 72 72 77 80 86 89 90 92 91 95 96
46 43 42 43 48 52 56 58 60 47 32 18 20 34 41 41 34 38 47 55 62 65 86 88 85 76 71 77 95 77 72 78 74 74 81 84 91 92 95 92 90 90 93
42 40 42 46 52 55 59 62 48 32 15 20 32 37 38 44 55 62 65 70 85 94 96 88 85 82 88 96 78 84 81 79 76 72 71 59 82 60 93 84 91 97 98
39 42 46 52 56 60 63 46 29 16 27 30 24 20 36 55 59 71 89 89 93 95 89 95 89 96 95 86 91 87 82 77 78 80 87 56 72 62 60 61 65 72 100
42 47 52 56 62 63 45 23 23 30 24 15 13 24 38 44 53 82 87 90 89 94 90 95 99 88 96 87 88 84 80 96 99 85 92 64 74 63 65 71 69 96 100
51 56 58 65 59 42 23 29 28 18 12 14 22 46 56 66 74 78 82 89 83 85 94 96 92 90 88 91 90 91 99 99 94 76 87 72 75 81 73 72 67 80 95
55 60 66 54 36 26 31 25 15 13 14 17 32 54 72 74 77 86 88 90 96 90 82 93 95 93 95 94 98 98 100 98 82 74 95 98 78 80 77 73 65 61 61
65 66 57 29 32 30 21 14 15 16 16 18 48 71 74 81 83 87 93 93 91 90 83 76 94 100 100 100 100 97 92 98 96 84 86 100 84 86 80 70 68 72 76
66 39 31 33 25 18 19 28 26 19 18 28 40 57 71 91 91 90 89 97 98 86 84 92 82 72 70 76 82 92 99 99 96 92 86 96 94 100 98 90 78 67 64

GFSMA_850_rhum_015.txt.gz
RH
60 72 89 97 88 83 68 75 75 38 25 25 19 14 11 14 16 23 28 32 32 33 37 40 41 41 42 42 40 38 36 34 33 33 35 38 43 49 56 62 68 73 76
58 78 94 97 86 70 77 78 54 27 29 23 18 13 12 15 19 22 27 32 31 30 32 32 32 26 19 15 12 9 8 8 7 7 7 6 6 8 13 22 32 42 54
65 79 91 91 71 78 79 73 30 32 27 24 18 12 11 14 20 23 28 30 27 24 21 20 20 16 14 14 15 15 14 13 11 10 10 10 9 8 6 6 7 20 11
83 86 88 81 81 84 82 40 34 32 32 25 16 10 9 12 21 28 28 29 26 26 26 20 10 10 10 11 13 14 14 13 12 12 11 10 10 10 11 12 12 24 86
87 89 90 81 85 84 73 33 36 38 32 23 14 9 11 14 22 29 28 32 28 24 19 16 14 14 15 16 16 15 14 13 14 14 15 19 17 18 26 49 55 58 92
90 90 89 83 82 83 49 38 40 38 33 22 11 10 17 17 24 30 32 40 31 21 19 18 18 18 19 19 18 16 14 17 35 18 27 39 60 70 70 76 87 94 94
92 92 81 85 84 81 34 40 42 41 36 25 12 14 21 23 26 32 42 35 24 26 22 24 24 22 22 22 20 17 13 13 30 18 25 60 83 92 94 95 94 95 93
93 93 84 82 78 64 36 42 45 44 42 33 18 14 19 24 27 28 36 30 27 26 28 26 26 23 23 22 21 17 15 14 19 21 66 80 84 85 94 94 93 92 90
96 88 86 84 72 41 41 45 46 47 46 42 31 20 16 20 22 21 24 26 26 26 27 28 25 25 24 21 21 18 21 21 33 74 93 94 93 93 92 91 90 89 89
98 91 92 82 59 37 43 46 46 48 48 48 41 30 20 18 18 19 24 25 28 27 26 24 24 24 22 24 23 25 27 27 41 84 83 91 92 92 89 88 87 88 94
98 98 93 75 43 42 45 47 47 49 51 52 48 37 26 23 22 24 26 23 23 22 20 23 24 22 21 24 28 34 34 32 39 63 77 87 88 86 85 85 90 95 97
97 97 89 70 43 44 48 47 48 50 53 55 53 42 30 26 26 29 32 29 26 20 24 24 22 20 24 29 34 38 41 50 73 77 78 84 85 84 84 91 92 91 90
98 96 78 72 45 47 49 48 48 50 54 57 56 46 33 29 30 32 34 32 32 29 29 24 22 22 23 29 36 40 43 43 46 72 81 86 86 89 85 86 84 84 86
98 91 78 56 48 48 51 49 49 52 56 58 57 45 34 31 30 29 30 36 39 38 32 27 24 24 32 34 29 28 30 34 52 81 86 89 90 89 86 85 85 84 84
96 83 67 54 50 60 50 49 50 54 57 59 57 43 33 29 24 24 29 37 45 54 47 34 37 32 31 35 47 65 72 51 82 88 92 93 90 88 87 85 84 84 91
86 75 65 53 74 51 50 50 52 55 58 60 53 37 31 24 20 27 34 36 36 38 51 37 40 43 45 51 58 59 54 58 64 86 92 88 90 89 87 86 90 92 94
78 71 58 73 52 50 49 51 54 57 60 58 42 32 23 19 28 36 36 34 31 34 48 47 50 54 66 54 52 61 62 70 64 59 89 90 89 90 90 92 90 92 97
74 68 76 52 49 47 49 52 55 59 60 48 33 21 21 34 38 37 34 32 37 43 55 63 70 73 65 63 72 78 71 61 66 60 84 89 93 94 96 97 98 93 93
72 69 56 50 46 47 50 54 58 61 50 33 19 23 34 38 33 31 37 39 47 61 71 85 90 82 73 78 85 76 70 67 71 66 72 62 78 92 96 96 97 96 97
78 52 52 48 45 49 53 58 62 49 31 18 27 31 29 27 33 43 48 58 80 88 94 94 93 83 87 91 81 81 75 82 69 74 74 63 87 56 58 62 71 66 71
54 57 44 43 49 53 58 63 47 27 23 29 24 17 15 28 44 47 68 88 90 89 92 96 87 90 99 87 82 87 86 79 82 79 94 77 70 57 57 60 62 60 69
53 50 45 49 54 60 63 42 24 28 27 20 14 14 20 32 36 54 82 87 90 91 94 94 95 97 86 83 90 92 88 96 100 93 85 75 62 60 63 67 66 80 84
51 50 52 58 65 63 39 26 30 24 17 14 15 17 24 43 69 70 76 86 91 96 99 98 90 85 95 88 90 96 98 99 95 83 85 88 59 67 71 72 65 61 62
57 57 63 65 53 34 30 30 22 15 16 16 13 17 47 67 70 78 88 97 98 93 87 81 87 90 94 94 98 100 97 98 87 76 77 100 81 75 71 71 62 58 61
71 65 58 40 31 31 26 18 15 17 15 9 11 33 52 54 63 94 92 91 89 90 86 79 78 98 100 90 92 100 90 97 89 84 72 93 83 85 80 69 62 65 70
62 48 33 32 28 22 17 19 20 14 12 31 52 53 59 88 95 95 96 99 98 90 84 92 90 74 69 70 78 87 94 100 97 100 73 99 92 94 99 86 83 72 64

GFSMA_850_rhum_018.txt.gz
RH
49 57 68 64 62 67 66 64 71 69 34 26 24 18 14 13 16 21 25 30 32 34 41 40 39 39 37 32 26 21 16 11 9 8 8 9 12 19 31 44 54 62 68
53 63 72 81 72 75 72 73 76 50 28 28 22 18 15 14 18 20 24 30 30 30 32 32 28 18 14 12 13 13 13 13 13 12 11 9 8 7 7 7 8 20 33
62 53 69 77 83 90 74 79 72 33 31 28 24 16 15 15 18 23 28 28 27 26 24 23 24 14 12 13 16 16 15 13 13 12 12 12 12 12 12 13 13 11 16
64 59 70 82 93 82 81 80 54 33 32 30 21 13 11 14 18 25 28 28 26 25 24 17 14 13 14 15 16 18 18 16 15 13 13 12 12 15 18 35 62 49 28
79 67 72 90 92 80 84 78 35 35 35 28 16 11 13 16 22 26 28 29 30 24 20 20 18 17 17 18 18 17 16 18 25 27 21 13 16 24 32 55 76 85 94
87 85 90 89 90 83 83 67 36 39 35 25 13 12 15 22 30 31 30 34 37 24 24 21 20 22 21 20 19 18 17 15 37 50 31 67 82 90 90 89 90 92 95
87 86 91 92 91 83 82 50 39 40 36 26 14 16 21 24 29 32 33 43 28 27 26 23 24 23 21 21 20 20 17 16 34 62 53 82 95 95 94 94 94 94 93
86 88 90 91 88 83 80 40 41 42 40 33 20 17 22 26 27 34 40 37 30 26 25 26 25 26 23 22 20 19 18 17 18 52 67 94 95 94 95 93 92 90 89
86 87 89 93 86 84 70 38 42 43 43 40 33 22 18 18 24 26 29 27 27 28 27 27 28 24 24 22 19 18 18 18 20 59 90 93 92 93 91 90 89 87 88
88 86 87 94 89 82 51 40 43 44 46 46 43 37 28 21 18 20 24 26 27 27 28 25 21 23 22 20 19 18 22 23 39 74 84 91 90 90 91 89 87 86 96
85 87 87 98 92 79 46 44 45 46 47 49 50 47 40 30 24 22 22 24 24 26 23 18 22 23 20 18 17 19 24 27 36 70 87 89 90 89 88 88 89 93 96
84 85 95 98 92 73 44 45 47 48 48 50 53 52 45 36 27 25 25 25 24 18 17 21 24 22 19 18 20 25 29 31 33 57 84 85 86 87 86 84 94 87 92
84 84 87 97 85 61 46 48 49 50 50 52 54 55 51 38 29 28 28 26 25 20 24 24 25 20 19 22 22 25 28 26 27 53 83 90 91 90 92 88 90 88 83
69 92 82 92 81 54 51 50 51 51 51 54 56 57 51 38 29 27 24 25 28 31 31 29 25 22 28 27 23 21 23 23 25 62 91 94 94 94 93 90 88 85 82
85 94 86 87 63 60 52 51 52 57 54 56 57 58 50 35 28 22 22 26 36 46 42 31 25 25 27 27 28 36 32 32 37 53 89 96 94 93 93 90 90 95 90
99 94 91 74 63 55 52 54 65 67 55 57 58 58 44 32 22 21 26 34 38 40 47 34 31 33 33 34 38 41 42 49 55 46 72 94 96 95 92 92 94 91 94
98 92 92 73 60 54 64 74 64 53 56 58 60 52 36 23 20 29 35 35 32 34 39 41 42 44 48 41 39 42 48 51 43 49 54 92 97 97 95 94 94 96 97
99 96 90 68 58 77 76 64 52 54 56 59 56 39 24 20 30 34 33 28 30 36 44 55 65 60 60 56 64 64 48 41 51 51 53 95 93 97 98 100 100 100 97
96 95 84 66 71 87 59 50 52 54 59 58 40 24 21 30 32 29 27 32 38 44 55 78 85 84 76 68 68 58 55 52 55 55 56 58 53 58 92 100 98 97 97
96 90 71 77 80 68 50 51 54 58 58 45 33 26 28 24 20 24 33 40 49 68 80 82 88 85 81 76 79 76 57 55 61 60 57 66 52 70 56 53 53 57 58
91 74 83 83 76 58 52 53 59 59 45 30 27 24 17 16 22 34 44 58 77 76 81 91 97 90 87 84 76 68 70 75 80 65 70 68 61 61 48 51 57 58 54
79 86 84 78 71 74 60 61 52 40 31 27 20 14 16 19 27 35 51 68 86 92 96 97 95 92 88 79 70 84 90 96 100 74 71 66 66 65 58 61 61 58 70
83 84 94 80 55 56 62 58 36 31 24 17 15 16 15 17 29 45 53 58 88 91 96 94 96 88 87 70 90 95 97 99 92 74 81 78 73 70 64 66 62 60 58
91 92 88 92 85 69 52 32 28 19 16 18 15 10 13 22 31 41 61 88 93 96 97 92 86 88 90 95 98 100 96 91 91 84 80 89 75 72 72 66 59 58 57
96 96 97 99 83 35 31 22 17 19 17 11 11 21 35 35 42 71 92 95 96 93 90 84 79 83 89 90 82 90 82 97 90 87 77 88 74 78 76 70 63 62 65
100 97 64 39 34 27 22 23 20 16 12 14 22 26 27 42 88 96 97 100 99 90 85 87 67 66 65 67 75 83 89 96 96 97 84 98 94 94 99 91 83 74 69

GFSMA_850_rhum_024.txt.gz
RH
66 76 84 87 83 74 57 58 64 64 68 58 30 28 22 17 13 15 21 25 31 37 37 37 35 34 31 22 16 13 12 12 12 12 12 12 12 11 9 7 7 12 27
54 64 74 78 72 66 60 70 67 67 71 52 32 28 24 17 14 17 22 27 30 30 30 29 26 22 23 24 29 15 13 14 14 14 14 13 12 12 12 12 11 10 9
50 59 70 73 70 63 71 74 68 72 73 43 32 30 23 17 15 16 22 26 27 27 25 23 24 16 13 14 21 20 17 16 15 14 14 13 12 12 13 14 15 12 12
55 50 59 77 74 73 73 82 72 76 72 39 34 29 20 14 14 17 24 25 25 25 24 20 16 16 16 16 16 18 18 18 17 16 15 14 15 20 30 29 26 25 19
72 53 57 70 76 76 77 86 78 81 70 37 35 25 15 12 15 22 25 26 27 25 22 18 18 17 18 19 19 18 18 17 17 18 18 16 22 41 54 58 70 84 82
78 73 80 83 70 73 86 91 84 84 61 38 33 21 14 14 17 24 26 26 28 32 26 21 22 20 20 20 20 18 18 18 19 20 37 28 47 73 88 94 95 95 95
88 87 88 87 74 78 84 93 86 84 58 39 30 19 17 18 22 26 27 29 31 35 29 25 23 21 22 21 20 17 18 18 18 24 47 77 89 95 95 95 94 94 94
86 84 85 90 84 83 87 87 90 84 60 40 30 20 22 27 25 27 28 30 33 36 31 27 24 24 23 22 19 18 19 18 17 20 56 94 94 94 94 94 94 93 93
88 88 71 84 82 87 84 86 91 84 60 40 36 26 24 24 28 31 30 32 34 34 31 27 27 26 25 22 18 20 19 17 15 15 42 80 94 95 94 94 94 92 92
66 86 79 77 82 86 81 82 91 86 64 42 40 35 29 26 24 29 31 30 30 30 28 28 29 28 26 19 20 20 18 16 15 15 44 72 94 94 94 94 94 92 90
60 67 77 74 80 82 84 83 87 88 75 44 44 42 38 34 31 28 26 32 29 27 27 28 29 28 19 21 21 19 16 15 15 14 13 43 85 95 95 95 94 93 92
63 64 68 69 76 85 83 85 92 94 74 46 46 46 45 45 44 40 38 36 31 28 26 26 25 19 21 22 21 18 18 18 14 12 10 35 93 96 96 97 96 95 94
66 65 65 65 68 78 87 92 92 93 82 48 47 49 49 50 50 50 46 39 33 29 25 20 19 21 24 23 18 19 17 15 12 9 8 34 85 94 95 97 97 96 94
56 66 66 64 66 72 90 96 97 92 75 63 51 51 52 52 52 53 51 42 32 25 20 19 22 24 24 23 22 21 18 15 12 12 11 12 26 34 66 94 96 96 94
60 64 68 72 67 73 94 97 93 90 77 55 56 57 57 57 56 54 50 38 26 21 22 24 25 22 23 23 23 23 22 20 22 20 19 21 21 34 76 96 98 97 96
57 60 68 69 70 86 99 96 92 83 65 65 69 72 76 69 62 66 63 31 22 24 33 31 28 24 24 22 23 27 24 26 27 26 24 23 32 84 98 99 99 100 99
74 66 66 76 85 92 98 91 90 76 69 73 75 73 83 78 82 70 42 26 25 33 36 32 28 27 26 25 23 24 29 30 26 23 23 30 48 83 98 99 100 99 100
82 92 98 97 100 98 96 90 77 77 77 72 83 88 90 85 72 41 32 28 30 35 36 32 32 31 32 31 37 43 43 39 33 26 33 41 44 48 48 94 100 100 99
99 100 100 100 99 96 93 81 72 73 78 82 98 98 87 60 42 40 36 32 32 31 31 38 40 43 48 50 61 58 59 36 30 35 41 43 45 47 47 68 89 89 89
100 99 100 100 98 87 79 68 72 77 90 98 86 85 92 56 41 51 54 30 27 29 36 44 52 59 76 76 78 73 67 50 45 46 43 49 49 52 51 54 55 55 55
100 100 100 99 98 88 74 75 85 95 97 97 99 99 72 50 98 69 20 21 34 42 50 67 70 92 94 86 86 83 84 64 63 50 46 52 54 51 50 53 53 53 52
100 100 100 99 96 91 96 97 100 99 99 98 93 92 99 79 22 22 29 46 62 64 76 91 95 97 95 90 91 89 84 89 93 60 63 67 64 55 56 57 56 54 52
100 100 99 94 91 91 100 99 98 99 100 100 99 88 28 20 21 21 25 31 38 37 56 98 97 93 98 96 93 97 95 91 88 69 70 75 67 59 59 56 56 53 51
100 99 97 96 99 96 98 99 100 97 98 92 32 25 20 20 24 33 32 38 63 83 90 90 90 94 97 100 99 100 98 84 84 74 72 86 63 65 66 59 58 56 58
99 100 100 100 99 99 100 100 99 89 36 28 28 25 28 30 28 24 79 93 96 95 86 86 84 83 84 80 73 72 71 85 83 80 73 89 68 76 71 60 60 64 68
100 100 99 100 99 100 98 60 25 24 33 34 28 30 32 27 30 66 98 98 94 90 86 72 66 61 56 58 69 78 86 92 93 97 83 98 80 82 98 77 76 77 69

GFSMA_850_rhum_030.txt.gz
RH
96 98 100 96 91 97 84 66 54 54 56 60 61 42 30 24 30 56 85 27 33 33 33 30 32 33 28 18 14 11 11 12 13 14 14 14 13 12 12 12 11 11 11
80 96 98 77 99 97 89 76 59 55 60 62 64 44 31 27 27 30 76 33 26 29 27 27 28 23 20 14 11 12 14 14 15 15 14 13 13 13 12 12 12 12 12
80 90 91 64 98 97 90 82 65 56 63 64 67 47 33 29 22 20 32 63 24 27 24 24 20 21 15 14 15 15 16 15 15 14 14 13 13 12 12 12 13 13 12
70 78 92 68 71 85 80 80 66 63 68 67 70 50 34 28 24 20 18 22 34 29 22 21 20 15 15 16 17 18 18 17 16 15 14 14 14 13 13 13 14 16 19
80 79 87 93 84 72 76 79 68 70 73 70 73 54 35 28 21 17 17 19 21 22 22 19 18 16 17 17 18 19 19 18 16 15 16 15 14 15 21 35 45 52 56
74 74 86 84 97 71 76 80 77 78 80 76 75 56 36 27 21 17 21 21 21 21 22 22 20 18 20 19 20 20 19 18 15 15 16 17 16 18 43 72 93 96 95
64 65 75 87 91 77 70 73 83 83 81 83 75 53 35 26 19 18 20 22 21 22 24 27 26 22 23 21 22 21 20 17 15 16 17 16 19 34 68 94 95 96 94
54 63 64 70 78 85 70 69 84 85 85 86 73 50 43 35 23 20 20 23 24 24 26 28 32 29 26 24 24 24 22 17 16 17 17 16 20 47 85 94 94 94 94
56 62 61 62 65 76 73 68 78 83 86 85 83 56 42 39 41 30 23 24 26 26 28 29 32 32 30 27 26 25 22 16 17 17 16 16 18 46 82 93 95 94 94
46 74 59 64 66 63 71 74 84 75 78 82 84 78 54 32 33 39 31 27 26 27 28 30 33 34 32 29 28 26 21 17 19 18 16 14 17 29 64 93 96 95 94
41 49 54 60 65 66 64 80 89 80 75 82 80 83 71 44 31 30 40 34 31 30 31 32 35 34 32 30 29 27 20 19 20 19 15 12 16 48 75 94 96 95 95
40 56 58 56 60 65 66 64 86 89 79 83 81 85 84 69 43 33 31 34 34 36 36 36 36 35 33 31 30 25 20 23 22 17 14 12 21 64 94 95 96 96 96
42 40 45 60 58 61 65 69 73 90 89 86 82 85 89 74 52 40 37 33 34 37 38 38 36 35 33 32 27 21 23 25 20 15 13 11 9 12 11 28 61 89 94
60 51 64 72 73 63 70 72 71 72 92 92 89 87 90 86 66 58 39 38 37 50 39 38 38 34 30 25 25 26 28 22 19 16 13 10 7 6 6 7 12 48 92
50 88 78 83 87 97 82 75 79 75 79 97 100 93 89 87 65 47 42 55 59 44 52 56 37 30 26 29 30 29 29 24 18 16 12 8 9 8 7 8 10 46 95
37 46 58 65 83 95 100 100 99 99 99 100 100 97 93 78 62 49 60 55 66 70 48 38 31 36 60 52 62 35 24 24 21 14 13 18 18 15 14 26 51 87 98
31 31 35 46 68 77 98 100 99 100 100 100 100 99 94 81 64 64 62 78 87 81 72 71 84 77 82 84 85 70 30 33 34 23 20 22 18 18 24 67 85 98 98
36 39 42 58 80 96 100 100 100 100 99 100 100 100 98 86 70 69 84 92 91 96 95 95 95 94 99 96 43 23 26 25 43 29 23 24 20 21 31 38 52 84 85
37 43 54 69 99 99 98 99 99 100 100 100 100 97 86 77 88 100 98 97 96 97 98 97 98 96 56 29 25 19 22 55 67 40 34 20 20 34 40 42 44 46 42
53 54 76 84 98 98 100 100 100 100 100 99 94 93 90 95 98 98 98 100 100 99 99 98 63 38 40 36 46 63 79 90 87 81 39 43 44 42 40 43 44 44 46
94 97 100 100 99 99 100 100 100 99 97 93 86 93 99 99 100 100 100 100 99 96 92 59 59 67 90 90 84 88 91 88 88 90 80 83 84 68 56 48 43 44 47
99 99 100 100 100 100 99 99 95 90 82 87 92 98 100 100 100 100 99 94 73 35 29 44 98 97 93 94 86 90 94 98 95 85 88 90 88 80 75 59 47 50 53
100 100 100 99 99 97 96 92 91 91 99 100 100 99 100 100 98 89 56 20 20 28 54 82 97 92 88 93 98 99 100 100 100 94 97 93 90 84 84 56 51 50 50
100 100 100 100 99 100 100 100 100 100 100 100 100 100 93 50 23 21 21 22 25 37 56 75 98 98 98 98 100 100 100 98 94 92 93 95 83 88 85 57 52 50 50
100 100 100 100 100 99 99 100 99 99 100 99 64 25 24 19 17 21 65 43 56 93 73 56 53 46 45 48 57 97 84 100 100 95 94 97 83 92 89 59 58 59 58
99 100 99 98 99 98 98 99 96 35 24 25 19 16 12 16 26 43 72 80 63 46 45 42 78 50 38 41 56 69 77 93 100 100 94 88 80 98 100 78 77 76 69

GFSMA_850_rhum_033.txt.gz
RH
92 94 93 94 98 99 92 81 60 50 50 53 58 56 40 42 59 66 82 34 32 41 38 32 27 28 24 19 14 10 11 13 14 14 14 14 13 13 13 13 12 12 13
88 92 95 95 97 99 99 91 72 57 50 50 57 59 45 38 55 62 78 38 35 30 28 28 27 24 20 17 11 13 14 15 15 14 14 13 13 13 12 12 12 12 12
87 88 89 96 100 98 99 97 77 61 54 52 57 61 52 43 41 50 71 61 25 25 25 25 22 20 19 13 14 14 15 15 15 14 13 12 12 12 11 11 12 11 12
92 87 88 89 93 95 94 99 82 72 62 59 62 61 59 43 42 47 56 65 47 29 23 23 20 19 14 14 14 15 16 16 16 14 13 13 12 12 11 11 11 11 13
97 94 91 92 89 99 95 98 82 79 66 63 62 62 62 48 38 45 42 38 54 59 32 22 20 17 15 16 16 17 18 17 17 14 14 14 13 13 12 15 22 30 33
95 98 94 95 96 96 99 91 78 77 70 68 67 66 67 49 41 41 36 35 38 30 40 20 19 18 16 19 18 19 19 19 18 15 14 16 16 17 19 37 66 79 94
100 99 94 94 99 100 100 92 76 72 75 72 69 69 63 56 39 41 35 39 30 23 22 21 22 23 20 22 22 21 22 22 19 15 15 16 16 22 39 68 92 96 95
81 99 86 74 83 88 99 93 83 76 76 78 72 72 59 58 46 32 34 37 32 25 22 22 24 27 27 26 26 24 24 23 21 16 16 17 16 16 32 87 94 94 95
77 100 100 91 92 99 94 87 85 78 68 75 80 70 60 53 47 41 32 31 31 29 23 23 26 27 30 31 29 27 26 26 22 16 17 18 18 20 38 87 94 95 94
49 58 100 93 82 89 84 74 81 76 77 74 81 78 72 48 42 43 42 35 30 30 26 24 26 29 31 33 32 30 28 28 24 17 18 18 16 22 50 80 93 96 94
61 45 85 100 93 85 73 74 92 76 78 77 84 77 79 69 46 40 38 38 34 30 28 30 28 32 33 35 35 32 30 29 24 18 20 19 16 20 49 93 96 95 95
97 99 96 100 100 100 91 71 78 86 86 83 90 85 76 76 77 54 38 38 36 36 33 33 33 34 36 38 37 34 32 30 22 20 21 18 15 17 18 34 72 92 94
99 99 94 92 98 99 100 100 100 87 76 90 97 88 80 85 82 80 60 37 38 43 44 45 39 41 42 40 39 36 33 27 22 24 21 18 14 11 9 7 4 15 60
88 98 92 81 72 97 99 99 100 100 100 98 100 100 87 89 84 83 81 53 38 42 43 43 45 49 46 40 39 34 26 27 26 26 22 16 13 11 7 5 5 6 23
97 96 98 100 96 88 91 100 100 100 100 100 100 100 100 98 88 95 93 52 77 92 64 49 50 42 40 41 37 31 30 33 56 51 39 29 11 7 5 6 7 8 23
79 39 68 91 100 99 99 100 100 100 100 100 100 98 99 100 100 98 76 88 84 72 67 62 60 64 63 49 55 64 72 83 84 85 68 18 9 7 6 7 8 9 39
66 43 37 47 69 93 100 99 99 100 99 100 100 100 100 100 100 91 86 88 94 92 92 92 76 64 74 80 91 96 96 95 70 27 36 20 10 9 20 14 11 22 64
47 45 47 52 52 78 99 97 98 100 100 100 100 100 100 100 100 100 99 100 95 87 98 97 94 97 98 100 100 99 92 60 53 34 12 12 17 45 26 13 19 40 33
50 51 56 54 80 75 98 99 99 99 100 100 100 100 100 100 99 100 98 100 99 99 100 100 100 99 99 97 89 60 59 26 20 37 51 63 62 39 19 30 49 41 46
67 75 56 50 69 63 92 97 98 99 99 100 100 100 100 100 97 95 100 99 99 100 100 100 99 98 91 58 40 38 47 72 82 61 46 49 59 28 39 64 52 40 42
94 97 89 97 99 99 100 99 99 100 99 100 100 100 100 100 100 98 99 100 100 99 98 98 94 45 40 68 82 80 80 81 79 65 59 56 48 77 68 56 46 46 52
93 96 100 100 100 100 99 100 99 98 99 100 97 99 99 100 100 100 100 99 98 96 49 47 60 78 90 78 86 85 87 86 78 40 73 55 67 59 56 50 50 56 67
98 98 99 100 100 99 97 95 94 94 93 98 100 100 100 100 100 99 94 66 20 22 36 49 84 73 90 88 89 84 71 88 91 67 90 64 64 64 57 56 57 59 62
100 99 99 99 99 98 98 99 100 100 100 100 100 99 98 97 65 31 20 18 20 22 31 46 66 78 83 90 89 92 94 90 74 71 90 87 74 70 62 59 57 57 56
98 98 100 99 99 99 100 100 100 99 99 99 99 94 37 21 18 12 14 24 39 65 82 66 49 37 33 32 36 39 36 60 63 76 69 82 67 80 66 56 55 58 63
94 98 96 96 99 96 96 98 97 95 67 24 21 19 15 14 16 20 38 99 92 69 64 48 73 66 48 36 42 55 63 69 83 98 89 84 80 88 96 64 68 66 61

GFSMA_850_rhum_039.txt.gz
RH
65 72 79 68 64 70 48 47 46 47 40 41 44 44 47 46 40 38 40 40 44 39 30 25 24 22 19 18 14 11 10 12 13 13 13 13 13 13 13 12 12 13 13
86 82 81 81 81 84 77 66 77 75 65 53 48 46 48 52 46 42 44 42 43 43 30 23 21 20 18 17 14 10 12 13 14 14 14 13 13 12 12 12 12 12 12
85 91 92 90 77 75 86 88 93 96 91 73 60 49 47 52 51 47 45 46 41 39 30 26 20 20 18 16 14 12 13 14 15 15 15 14 13 12 12 11 10 10 10
74 78 83 81 80 79 82 87 87 96 94 88 70 59 51 50 54 52 48 46 42 40 34 27 20 19 19 16 15 14 14 16 17 17 16 15 14 13 12 10 10 9 11
85 84 78 74 78 84 82 86 85 92 95 92 88 70 61 54 54 55 53 50 45 40 35 26 20 20 20 18 16 14 15 18 19 20 19 18 17 16 13 11 10 11 17
81 83 87 88 84 83 83 88 93 92 95 89 96 88 69 60 55 57 56 54 50 44 39 29 24 21 20 18 16 15 17 19 21 22 22 21 20 19 15 12 11 11 19
81 88 76 73 86 85 78 82 89 95 91 91 92 92 71 62 58 57 58 56 54 50 41 34 27 25 23 21 18 16 19 19 21 23 24 22 21 21 18 15 13 18 25
78 83 93 92 74 86 88 83 78 80 92 98 98 88 61 61 65 61 60 60 57 52 46 37 32 28 27 24 20 19 20 22 22 24 25 24 21 20 19 17 14 16 27
58 66 75 75 85 91 89 80 76 72 73 83 98 92 64 66 64 60 59 61 60 56 51 43 37 32 30 26 23 24 22 24 25 26 26 25 22 18 19 18 18 25 38
61 66 62 69 77 82 85 90 88 82 92 85 90 98 90 73 64 63 60 62 63 59 54 48 42 37 32 29 26 28 30 30 29 28 28 27 24 20 19 21 28 45 50
77 72 71 67 84 81 88 99 100 97 84 95 99 94 85 80 74 69 65 64 62 58 56 51 47 42 38 33 30 32 34 36 34 33 31 30 28 22 28 44 56 24 21
67 78 79 80 81 90 93 90 97 98 99 100 98 100 99 91 81 75 68 68 69 62 57 60 64 59 47 42 38 38 38 39 41 40 36 43 38 25 37 28 25 22 23
74 80 81 87 89 94 97 90 90 91 98 100 100 99 95 95 96 90 85 75 68 63 62 77 84 57 51 51 47 45 43 45 46 48 63 64 55 28 26 30 30 41 38
53 67 77 79 87 93 95 85 92 90 92 95 98 100 100 100 99 100 99 95 83 74 71 66 75 69 67 55 53 56 77 67 55 74 84 84 55 56 49 74 87 68 42
93 92 81 74 79 79 69 93 96 93 91 90 82 90 90 86 89 100 100 100 100 95 86 79 77 84 71 76 86 82 69 75 95 95 98 95 93 94 97 89 58 50 54
86 92 86 69 55 42 43 64 81 89 92 94 92 99 96 99 99 100 100 100 100 100 98 98 91 93 91 95 94 95 98 100 100 100 99 100 100 100 92 80 76 62 53
76 78 74 63 50 49 53 56 58 56 53 50 67 76 87 98 100 92 96 100 100 100 100 99 98 99 100 98 100 100 100 99 100 100 97 100 99 83 55 45 45 70 70
84 80 73 61 55 54 54 64 70 76 78 77 73 70 69 66 96 100 98 100 98 99 100 100 100 99 100 100 100 100 100 99 100 100 100 93 77 41 60 56 45 42 66
76 72 70 68 71 68 66 63 73 86 89 94 95 99 77 79 99 100 99 98 98 100 100 99 100 99 100 99 100 100 100 100 100 87 48 37 47 47 35 27 42 74 96
87 81 79 79 77 82 90 85 97 97 96 94 100 100 100 99 100 100 99 100 99 100 99 100 99 99 100 100 99 100 98 67 40 44 42 35 46 30 28 27 30 48 50
91 92 90 86 86 86 88 88 84 82 85 88 91 98 98 99 100 99 100 100 100 99 100 100 100 100 100 99 89 60 54 46 36 51 42 33 27 23 31 39 44 48 50
91 86 80 76 82 77 78 80 90 91 94 97 98 97 99 98 98 98 100 100 100 100 100 99 98 97 63 52 54 61 53 55 37 43 24 16 32 37 43 48 50 51 52
84 80 82 86 83 84 89 90 90 89 90 92 97 98 99 98 100 98 97 98 97 94 92 63 48 52 61 60 58 54 58 58 46 37 40 31 40 41 47 47 50 52 54
89 83 80 84 83 85 93 99 100 99 99 99 99 98 99 98 98 99 95 57 42 38 38 32 39 44 50 63 75 68 54 46 32 30 50 42 46 47 47 48 50 50 56
81 80 81 84 84 84 91 99 98 100 98 98 95 77 52 30 22 18 20 24 32 48 58 69 70 64 56 55 52 38 30 31 44 49 58 61 58 55 45 42 47 52 56
82 76 65 58 39 34 25 21 18 18 19 20 22 20 20 20 22 25 22 28 43 51 58 60 53 39 33 29 29 36 53 60 68 66 70 69 66 70 57 46 50 54 54

GFSMA_850_rhum_042.txt.gz
RH
49 50 55 63 65 59 56 42 38 42 42 42 42 42 44 46 46 41 40 43 46 47 47 38 25 23 20 24 22 14 10 12 13 13 13 12 12 13 13 13 13 13 13
69 70 74 71 77 79 76 76 66 63 64 62 53 48 49 47 48 48 45 45 45 48 47 45 32 21 18 22 19 14 11 13 13 13 14 14 14 13 12 12 12 12 12
71 73 77 79 84 88 84 82 83 76 74 74 79 70 57 48 46 47 48 48 49 48 46 47 35 24 19 22 19 14 12 13 14 15 15 15 14 14 13 12 11 11 11
80 79 76 74 81 90 90 84 79 83 86 87 89 84 76 60 52 49 50 51 51 50 46 44 38 27 22 21 20 15 14 14 15 16 17 16 16 15 14 12 11 10 10
84 82 79 76 80 85 87 86 85 83 84 85 90 94 86 82 65 56 52 53 54 54 51 47 42 33 24 24 24 21 15 16 17 18 19 18 17 17 16 14 12 11 11
91 92 87 82 81 86 85 86 88 89 90 89 94 95 94 89 84 70 60 55 55 56 55 52 47 38 30 29 28 26 28 18 19 19 20 20 18 18 18 15 14 13 16
80 80 79 82 92 93 86 84 82 86 80 83 82 93 90 89 89 90 68 60 56 57 57 56 52 45 35 35 31 26 31 38 20 20 22 22 21 19 18 17 16 15 18
83 79 76 78 81 85 88 86 87 86 77 77 87 85 95 83 88 82 75 67 62 58 58 58 56 52 43 39 33 29 23 25 31 27 24 25 24 20 20 18 18 19 25
67 76 73 77 83 81 77 79 82 89 81 76 75 83 85 83 79 68 62 63 62 61 59 60 60 56 51 45 43 39 31 22 28 74 66 43 30 25 20 18 21 23 49
43 47 56 67 65 71 82 85 85 89 93 91 86 86 87 92 80 70 67 64 61 57 57 58 60 61 56 53 52 49 39 28 26 60 94 75 50 48 29 36 57 50 76
37 41 55 68 73 70 67 86 85 91 93 97 86 94 98 99 97 99 88 75 74 70 64 62 60 62 60 60 70 58 48 43 38 34 47 93 95 95 89 94 97 97 62
29 36 46 58 66 88 85 86 82 91 93 95 100 99 99 100 98 98 90 89 80 83 72 68 64 65 63 68 89 88 77 48 45 44 44 69 90 95 93 100 99 87 34
31 37 59 75 85 79 89 91 87 91 82 80 86 90 91 94 98 99 100 96 98 90 77 80 73 66 70 80 86 87 80 62 57 62 69 79 62 59 57 68 83 77 75
49 50 55 68 83 78 77 83 88 87 82 84 91 94 95 98 100 100 100 100 99 98 96 95 88 74 67 65 91 94 84 87 84 71 66 86 98 96 92 94 94 96 98
63 84 85 84 79 74 76 73 68 70 87 92 80 87 87 85 94 99 100 100 100 100 99 98 94 90 85 82 85 86 95 88 88 96 100 100 100 100 100 100 100 98 99
63 79 89 85 84 66 48 40 42 46 55 62 75 84 87 85 78 87 97 99 99 100 100 98 99 98 94 91 97 96 98 99 100 100 100 100 100 100 100 99 100 99 89
79 76 81 80 70 59 50 49 51 54 55 58 62 62 76 91 100 100 100 100 100 100 99 99 100 100 100 100 100 100 100 100 100 100 100 100 99 99 99 99 96 82 95
82 85 82 77 70 62 60 61 63 63 69 75 74 79 95 100 99 98 98 98 100 100 100 99 100 100 100 100 100 100 100 99 100 100 98 99 99 98 94 84 97 85 78
75 79 76 73 71 69 69 70 68 72 73 79 90 100 98 99 98 97 99 99 100 98 100 99 100 100 100 100 100 100 99 99 99 99 98 95 58 79 90 72 62 71 59
91 87 85 82 78 75 76 78 82 83 85 90 91 91 91 96 100 100 100 99 97 98 98 99 99 100 100 99 100 99 100 98 98 87 59 54 47 40 40 30 24 22 21
96 91 85 80 78 78 77 76 77 76 79 74 78 81 90 96 96 93 92 97 100 99 100 100 100 100 100 100 99 99 97 80 60 50 40 46 32 23 19 21 26 32 37
80 80 78 77 78 73 74 77 85 88 93 94 93 90 88 93 93 92 93 99 98 99 99 99 100 100 96 96 66 58 56 48 52 46 35 25 26 20 33 42 42 42 47
83 86 84 83 81 82 84 88 94 95 96 94 95 97 97 96 97 96 95 96 99 100 96 94 82 56 50 53 56 52 46 45 46 40 41 16 32 36 45 49 50 50 51
85 81 78 77 74 77 86 90 100 99 95 93 93 91 93 94 92 92 93 86 57 38 29 28 30 37 44 48 52 52 52 49 39 23 33 42 41 44 46 50 49 48 51
76 75 75 70 67 53 42 33 34 24 34 35 36 32 26 19 17 13 12 14 17 23 36 40 45 51 56 58 72 66 50 42 35 45 55 57 52 50 45 44 44 48 54
49 25 17 16 16 16 16 15 14 14 15 14 15 17 19 19 19 19 19 24 31 40 49 52 58 53 41 33 41 45 43 58 71 64 61 66 67 71 57 52 55 58 58